Tracking 17694 objects as of 28-May-2016
HD Live streaming from Space Station
objects crossing your sky now

NAVSTAR 19 (USA 54)

Track NAVSTAR 19 (USA 54) now!
NAVSTAR 19 (USA 54) is classified as:


NORAD ID: 20533
Int'l Code: 1990-025A
Perigee: 20,960.3 km
Apogee: 21,177.2 km
Inclination: 55.5 °
Period: 753.9 minutes
Semi major axis: 27439 km
RCS: 0.6015 m2 (medium)
Launch date: March 26, 1990
Source: United States (US)
Launch site: AIR FORCE EASTERN TEST RANGE (AFETR)
PRN:
Your satellite tracking list
Your tracking list is empty





NASA's NSSDC Master Catalog

Two Line Element Set (TLE):
1 20533U 90025A   16148.25874920 -.00000066  00000-0  00000+0 0  9998
2 20533  55.5246  19.7342 0039518 147.9366 182.8000  1.91038515184915
Source of the keplerian elements: AFSPC

N2YO: 598